Le nostre stazioni meteo in Italia

Pubblicità
Il mio iltempo24.it
Otranto, Italia (16334): Temperatura & dewpoint: 15.06.2019 00:00:00 - 21.06.2019 00:00:00 (CEST)Otranto, Italia (16334): velocità del vento: 15.06.2019 00:00:00 - 21.06.2019 00:00:00 (CEST)Otranto, Italia (16334): direzione del vento: 15.06.2019 00:00:00 - 21.06.2019 00:00:00 (CEST)Otranto, Italia (16334): reduced air pressure: 15.06.2019 00:00:00 - 21.06.2019 00:00:00 (CEST)
Data & Tempo tt [°C] td [°C] ff [km/h] ff [kn] dd ppp [hPa]
21.06.2019 00:00:00 - - - - - -
20.06.2019 23:00:00 23,6 22,2 4 2 NO 1013,4
20.06.2019 22:00:00 24,5 22,9 4 2 ONO 1013,2
20.06.2019 21:00:00 25,1 23,5 2 1 O 1012,6
20.06.2019 20:00:00 26,0 25,4 4 2 SO 1012,4
20.06.2019 19:00:00 26,7 25,4 8 4 S 1012,2
20.06.2019 18:00:00 28,2 25,6 5 3 SSE 1011,8
20.06.2019 17:00:00 28,4 26,2 5 3 E 1012,0
20.06.2019 16:00:00 28,0 26,8 4 2 ENE 1012,3
20.06.2019 15:00:00 27,6 26,0 9 5 ENE 1012,6
20.06.2019 14:00:00 27,6 26,9 13 7 ENE 1012,9
20.06.2019 13:00:00 27,7 26,1 11 6 ENE 1013,0
20.06.2019 12:00:00 27,4 26,7 8 4 ENE 1013,1
20.06.2019 11:00:00 26,9 26,9 8 4 ENE 1012,9
20.06.2019 10:00:00 26,4 26,4 8 4 NE 1012,7
20.06.2019 09:00:00 25,9 25,9 9 5 ENE 1012,8
20.06.2019 08:00:00 24,5 24,4 5 3 NNE 1012,6
20.06.2019 07:00:00 23,2 23,1 5 3 N 1012,5
20.06.2019 06:00:00 22,2 22,1 5 3 NO 1012,2
20.06.2019 05:00:00 22,1 22,0 5 3 NNO 1011,9
20.06.2019 04:00:00 21,4 21,3 8 4 NO 1011,8
20.06.2019 03:00:00 21,3 21,2 8 4 ONO 1012,0
20.06.2019 02:00:00 22,3 22,2 4 2 NO 1012,3
20.06.2019 01:00:00 22,7 22,6 4 2 O 1012,4
20.06.2019 00:00:00 23,1 23,0 2 1 ONO 1012,8
19.06.2019 23:00:00 23,2 23,1 0 0 N 1012,6
19.06.2019 22:00:00 23,7 23,6 2 1 NNE 1012,7
19.06.2019 21:00:00 24,5 24,4 4 2 ENE 1012,2
19.06.2019 20:00:00 25,1 25,0 8 4 ENE 1011,9
19.06.2019 19:00:00 26,8 26,8 4 2 SSE 1011,6
19.06.2019 18:00:00 26,1 26,1 9 5 SSO 1011,5
19.06.2019 17:00:00 27,8 27,3 4 2 S 1011,9
19.06.2019 16:00:00 - - - - - -
19.06.2019 15:00:00 27,1 27,1 11 6 NNE 1012,3
19.06.2019 14:00:00 27,1 27,1 13 7 NNE 1012,9
19.06.2019 13:00:00 27,0 27,0 9 5 NE 1013,2
19.06.2019 12:00:00 26,7 26,7 11 6 NNE 1013,3
19.06.2019 11:00:00 26,1 26,1 11 6 N 1013,3
19.06.2019 10:00:00 25,4 25,3 13 7 NNE 1013,2
19.06.2019 09:00:00 24,6 24,5 11 6 N 1013,1
19.06.2019 08:00:00 23,7 23,6 11 6 NE 1012,9
19.06.2019 07:00:00 22,0 21,9 8 4 NNO 1012,9
19.06.2019 06:00:00 21,3 21,2 11 6 NNO 1012,7
19.06.2019 05:00:00 21,4 21,3 8 4 NNO 1012,5
19.06.2019 04:00:00 21,2 21,1 9 5 NNO 1012,6
19.06.2019 03:00:00 20,9 20,8 9 5 NO 1012,9
19.06.2019 02:00:00 20,9 20,8 8 4 ONO 1013,5
19.06.2019 01:00:00 21,2 21,1 5 3 NO 1013,5
19.06.2019 00:00:00 21,8 21,7 5 3 ONO 1013,9
18.06.2019 23:00:00 22,5 22,4 2 1 NO 1014,0
18.06.2019 22:00:00 23,3 23,2 8 4 N 1014,0
18.06.2019 21:00:00 23,7 23,6 5 3 NNE 1013,7
18.06.2019 20:00:00 24,6 24,5 5 3 N 1013,2
18.06.2019 19:00:00 24,7 24,6 8 4 N 1013,1
18.06.2019 18:00:00 25,1 25,0 11 6 N 1012,3
18.06.2019 17:00:00 26,1 26,1 11 6 N 1012,5
18.06.2019 16:00:00 24,8 24,7 8 4 NNE 1013,3
18.06.2019 15:00:00 24,4 24,3 8 4 ONO 1013,8
18.06.2019 14:00:00 25,6 25,5 11 6 N 1013,6
18.06.2019 13:00:00 26,6 26,6 15 8 NNE 1013,8
18.06.2019 12:00:00 25,7 25,7 16 9 N 1013,8
18.06.2019 11:00:00 25,7 25,7 15 8 NNE 1013,6
18.06.2019 10:00:00 25,3 25,2 18 10 N 1013,4
18.06.2019 09:00:00 24,7 24,6 15 8 N 1013,4
18.06.2019 08:00:00 23,8 23,7 15 8 N 1013,2
18.06.2019 07:00:00 22,4 22,3 9 5 N 1013,1
18.06.2019 06:00:00 21,6 21,5 13 7 NNO 1012,8
18.06.2019 05:00:00 21,6 21,5 11 6 NNO 1012,7
18.06.2019 04:00:00 21,4 21,3 11 6 NNO 1012,4
18.06.2019 03:00:00 21,3 21,2 9 5 NO 1012,4
18.06.2019 02:00:00 22,1 22,0 9 5 NNO 1012,5
18.06.2019 01:00:00 22,1 22,0 11 6 NO 1012,6
18.06.2019 00:00:00 21,9 21,8 0 0 N 1012,6
17.06.2019 23:00:00 22,5 22,4 4 2 O 1012,5
17.06.2019 22:00:00 23,0 22,9 4 2 NNO 1012,6
17.06.2019 21:00:00 23,5 23,4 8 4 N 1012,1
17.06.2019 20:00:00 24,7 24,6 4 2 NE 1011,7
17.06.2019 19:00:00 25,5 25,4 5 3 NNE 1011,6
17.06.2019 18:00:00 26,5 26,5 8 4 NNE 1011,1
17.06.2019 17:00:00 27,2 26,3 9 5 NNE 1011,2
17.06.2019 16:00:00 28,2 25,6 15 8 N 1011,2
17.06.2019 15:00:00 27,6 26,4 16 9 N 1011,5
17.06.2019 14:00:00 27,5 25,9 15 8 NNE 1012,0
17.06.2019 13:00:00 27,2 25,5 16 9 N 1012,3
17.06.2019 12:00:00 27,0 25,4 18 10 N 1012,4
17.06.2019 11:00:00 26,2 26,0 21 11 N 1012,6
17.06.2019 10:00:00 25,8 25,4 22 12 N 1012,6
17.06.2019 09:00:00 25,0 24,9 21 11 N 1012,4
17.06.2019 08:00:00 25,2 24,8 18 10 NNE 1012,1
17.06.2019 07:00:00 22,9 22,8 15 8 NNO 1011,7
17.06.2019 06:00:00 21,4 21,3 13 7 NO 1011,3
17.06.2019 05:00:00 21,8 21,7 13 7 NO 1011,3
17.06.2019 04:00:00 22,2 22,1 15 8 NNO 1011,4
17.06.2019 03:00:00 21,9 21,8 13 7 NO 1011,2
17.06.2019 02:00:00 22,0 21,9 13 7 NO 1011,6
17.06.2019 01:00:00 22,6 22,5 11 6 NNO 1011,9
17.06.2019 00:00:00 22,5 22,4 9 5 ONO 1012,1
16.06.2019 23:00:00 22,4 22,3 11 6 ONO 1011,7
16.06.2019 22:00:00 23,0 22,9 8 4 NO 1011,9
16.06.2019 21:00:00 23,9 23,8 9 5 NO 1011,1
16.06.2019 20:00:00 25,1 24,9 15 8 N 1011,4
16.06.2019 19:00:00 25,6 25,5 18 10 N 1011,4
16.06.2019 18:00:00 26,8 25,2 26 14 N 1011,1
16.06.2019 17:00:00 28,3 26,1 24 13 N 1010,7
16.06.2019 16:00:00 - - - - - -
16.06.2019 15:00:00 28,0 26,0 22 12 N 1011,3
16.06.2019 14:00:00 28,1 25,7 24 13 NNO 1011,9
16.06.2019 13:00:00 27,9 25,3 21 11 N 1012,4
16.06.2019 12:00:00 27,8 25,4 24 13 N 1012,4
16.06.2019 11:00:00 27,4 25,0 24 13 N 1012,3
16.06.2019 10:00:00 27,0 25,8 22 12 N 1011,9
16.06.2019 09:00:00 26,7 25,4 22 12 N 1011,4
16.06.2019 08:00:00 25,7 25,7 18 10 NNO 1011,1
16.06.2019 07:00:00 23,8 23,7 18 10 NNO 1011,0
16.06.2019 06:00:00 24,2 22,6 15 8 NNO 1011,0
16.06.2019 05:00:00 24,9 23,1 16 9 NNO 1010,9
16.06.2019 04:00:00 23,8 22,4 11 6 NO 1010,4
16.06.2019 03:00:00 22,8 22,2 11 6 O 1010,7
16.06.2019 02:00:00 22,9 22,8 11 6 ONO 1010,9
16.06.2019 01:00:00 23,4 23,2 8 4 ONO 1011,1
16.06.2019 00:00:00 23,0 22,9 9 5 NO 1011,3
15.06.2019 23:00:00 22,4 22,3 8 4 O 1011,4
15.06.2019 22:00:00 24,6 24,5 8 4 ESE 1011,1
15.06.2019 21:00:00 24,9 24,7 9 5 NE 1010,7
15.06.2019 20:00:00 25,8 24,2 5 3 NNE 1010,8
15.06.2019 19:00:00 26,7 25,4 9 5 N 1011,0
15.06.2019 18:00:00 - - - - - -
15.06.2019 17:00:00 27,7 26,5 13 7 N 1011,4
15.06.2019 16:00:00 26,8 24,6 15 8 N 1011,8
15.06.2019 15:00:00 27,9 25,9 16 9 N 1011,9
15.06.2019 14:00:00 27,2 26,0 16 9 N 1012,1
15.06.2019 13:00:00 26,2 24,9 21 11 N 1012,7
15.06.2019 12:00:00 27,7 26,1 15 8 N 1012,6
15.06.2019 11:00:00 26,7 25,1 15 8 NE 1012,8
15.06.2019 10:00:00 26,3 25,0 16 9 NNE 1012,7
15.06.2019 09:00:00 26,2 24,2 16 9 NNO 1012,4
15.06.2019 08:00:00 24,8 23,7 18 10 N 1012,7
15.06.2019 07:00:00 22,7 21,3 15 8 NNO 1012,8
15.06.2019 06:00:00 21,4 21,2 15 8 NNO 1012,6
15.06.2019 05:00:00 21,3 20,8 15 8 N 1013,0
15.06.2019 04:00:00 21,3 19,9 15 8 NNO 1013,1
15.06.2019 03:00:00 21,4 19,5 16 9 NNO 1013,5
15.06.2019 02:00:00 21,0 20,1 16 9 NNO 1013,9
15.06.2019 01:00:00 21,2 19,8 15 8 NNO 1013,9
15.06.2019 00:00:00 20,9 20,7 15 8 NO 1014,8

tt = Temperatura
td = dewpoint
ff = velocità del vento
dd = direzione del vento
ppp = reduced air pressure

Stazioni seguenti

WeatherPro
AMSI
MeteoEarth